Index of /podcasts/audiosite

[ICO]NameLast modifiedSizeDescription

[DIR]Parent Directory  -  
[SND]20170301110842-38eme-rencontres-trans-musicales.mp301-Mar-2017 11:07 13M 
[SND]20170301110857-38eme-rencontres-trans-musicales.mp301-Mar-2017 11:08 13M 
[SND]20170303053316-test-promo-article.mp303-Mar-2017 17:31 1.4M 
[SND]20170329075145-ay-roop-met-a-lhonneur-les-arts-du-cirque2.mp329-Mar-2017 19:49 8.7M 
[SND]20170425015335-38eme-rencontres-trans-musicales.mp325-Apr-2017 13:51 3.4M 
[SND]20170425015406-carl-honore-ou-leloge-de-la-lenteur.mp325-Apr-2017 13:52 3.4M 
[SND]20170508102335-radio-campus-rennes-devient-c-lab.mp308-May-2017 22:21 155K 
[SND]20170519102923-je-donne-tu-donnes-nous-donnons.mp319-May-2017 10:26 7.0M 
[SND]20170522015231-radio-campus-rennes-devient-c-lab.mp322-May-2017 13:50 155K 
[SND]20170522021649-radio-campus-rennes-devient-c-lab.mp322-May-2017 14:14 51M 
[SND]20170522032126-59000-samples-gratuits.wav22-May-2017 15:19 28M 
[SND]20170522074945-l214-vous-presente-les-joies-du-veganisme.wav22-May-2017 19:47 56M 
[SND]20170523050150-les-jardins-flottants-entrent-en-phase-de-test.wav23-May-2017 16:59 61M 
[SND]20170523073006-la-fete-7-de-larmada.mp323-May-2017 19:27 27M 
[SND]20170524033216-paris-passe-a-louest.wav24-May-2017 15:29 75M 
[SND]20170531012001-a-la-rencontre-des-petits-debrouillards.mp331-May-2017 13:17 46M 
[SND]20170531012222-a-la-rencontre-des-petits-debrouillards.mp331-May-2017 13:19 46M 
[SND]20170531033216-a-la-rencontre-des-petits-debrouillards.mp331-May-2017 15:29 46M 
[SND]20170608032914-zoom-sur-lopen-source-et-leconomie-circulaire.mp308-Jun-2017 15:26 67M 
[SND]20170609012537-festival-agitato-cest-parti.mp309-Jun-2017 13:23 86M 
[SND]20170613075753-leco-construction-en-reflexion.wav13-Jun-2017 19:55 181M 
[SND]20170613080117-quand-lart-et-la-science-menent-le-meme-combat.wav13-Jun-2017 19:58 115M 
[SND]20170616020948-chaude-fete-de-la-musique-a-rennes.wav16-Jun-2017 14:07 225M 
[SND]20170616101730-la-mosaique-sonore-des-gens-du-blosne.wav16-Jun-2017 10:15 161M 
[SND]20170621042650-bonus-nous-avait-manque.wav21-Jun-2017 16:24 91M 
[SND]20170628055022-ulla-couvre-le-ciel-de-mille-signes-etranges.wav28-Jun-2017 17:47 79M 
[SND]20170707061652-un-amour-de-clowns.mp307-Jul-2017 18:14 32M 
[SND]20170711044154-louisett-a-la-classe.mp311-Jul-2017 16:39 31M 
[SND]20170711045703-camille-godet-a-lhonneur-au-musee.wav11-Jul-2017 16:54 84M 
[SND]20170712115241-quartier-dete-aux-gayeulles-les-19-et-20-juillet.wav12-Jul-2017 11:50 155M 
[SND]20170717043825-ars-nomadis-fait-chanter-le-blosne.wav17-Jul-2017 16:35 167M 
[SND]20170717094448-apaya-network-ouvre-son-laboratoire-sensoriel.wav17-Jul-2017 09:42 130M 
[SND]20170717102150-les-petits-debrouillards-lancent-leur-centre-alternatif.wav17-Jul-2017 10:19 108M 
[SND]20170718042623-kao-plast-sengage-pour-la-valorisation-des-dechets-au-senegal.wav18-Jul-2017 16:23 113M 
[SND]20170719123647-lespace-des-sciences-a-grande-vitesse.wav19-Jul-2017 12:34 182M 
[SND]20170724120639-la-fertilite-perturbee.mp324-Jul-2017 12:04 39M 
[SND]20170727020313-a-vos-etoiles.wav27-Jul-2017 14:00 113M 
[SND]20170817123150-lopera-de-rennes-en-mutation.wav17-Aug-2017 12:29 110M 
[SND]20170831093028-loi-travail-force-ouvriere-ille-et-vilaine-en-rupture-avec-le-secretaire-national-jean-claude-mailly.wav31-Aug-2017 21:27 148M 
[SND]20170907040903-vern-sur-seiche-en-biennale-dart-contemporain.wav07-Sep-2017 16:06 231M 
[SND]20170911124901-les-workshops-delectroni-k-cest-maintenant.wav11-Sep-2017 12:46 234M 
[SND]20170912060548-test.wav12-Sep-2017 18:02 8.9M 
[SND]20170918105706-la-saison-culturelle-de-rennes-2-sous-le-signe-des-vingt-ans.mp318-Sep-2017 22:54 53M 
[SND]20170918112437-loi-travail-penicaud-la-lutte-commence-episode-1.wav18-Sep-2017 23:21 168M 
[SND]20170920011653-on-dirait-quanna-et-samantha-nous-assiegent.mp320-Sep-2017 13:14 25M 
[SND]20170921021833-ce-week-end-inventons-les-possibles.mp321-Sep-2017 02:15 163M 
[SND]20170921025823-nicolas-floch-ou-lart-comme-science-immergee.wav21-Sep-2017 02:55 379M 
[SND]20170921035954-un-marathon-artistique-a-tize.mp321-Sep-2017 03:57 164M 
[SND]20170921040825-un-marathon-artistique-a-tize.mp321-Sep-2017 04:05 39M 
[SND]20170922041755-les-coups-de-coeur-de-le-failler.mp322-Sep-2017 16:15 5.1M 
[SND]20170922041929-les-coups-de-coeur-de-le-failler.mp322-Sep-2017 16:16 5.1M 
[SND]20170922075830-lassociation-banana-juice-fete-dignement-ses-25-ans.mp322-Sep-2017 19:55 32M 
[SND]20170925075007-cap-sur-le-projet-boat-navire-de-recherche-artistique-et-pedagogique.mp325-Sep-2017 19:47 42M 
[SND]20170925101841-yann-serandour-vous-invite-a-la-criee.mp325-Sep-2017 10:15 44M 
[SND]20170927025130-tout-rennes-court-avec-luc-pham.mp327-Sep-2017 14:48 32M 
[SND]20170928011529-trasher-ether.wav28-Sep-2017 13:12 86M 
[SND]20170928025122-comment-devient-on-libraire.mp328-Sep-2017 14:48 22M 
[SND]20170928025802-journee-mondiale-de-la-contraception.wav28-Sep-2017 14:55 401M 
[SND]20170928025941-journee-mondiale-de-la-contraception.wav28-Sep-2017 14:57 401M 
[SND]20170929042422-cest-la-fete-du-piano-a-bretelle.wav29-Sep-2017 16:21 288M 
[SND]20170929043648-lorchestre-symphonique-de-bretagne-vous-attends-de-pied-ferme.mp329-Sep-2017 16:33 46M 
[SND]20171002071410-immersion-archeologique-dans-le-monde-mysterieux-danita-gauran.wav02-Oct-2017 19:11 128M 
[SND]20171003102247-france-benevolat-vous-invite-aux-lices-toute-la-journee.mp303-Oct-2017 10:19 36M 
[SND]20171003110324-l-arene-recrute.mp303-Oct-2017 11:00 59M 
[SND]20171005034418-les-normands-beach-youth-se-devoilent-pour-radio-campus-france.mp305-Oct-2017 15:41 41M 
[SND]20171009074121-que-se-passe-t-il-au-cabinet-du-livre-dartiste.mp309-Oct-2017 19:38 28M 
[SND]20171010032625-les-femmes-et-les-politiques-dausterite-avec-fatima-ezzahra-benomar.mp310-Oct-2017 15:23 43M 
[SND]20171010060419-la-14-eme-edition-du-festival-court-metrange.wav10-Oct-2017 18:01 478M 
[SND]20171010100430-stan-douglas-tinvite-en-studio.mp310-Oct-2017 10:01 13M 
[SND]20171013051741-decouvrez-les-idees-solidaires-innovantes.mp313-Oct-2017 17:14 24M 
[SND]20171017031511-lart-et-la-rue-les-etudiants-ont-ete-creatifs-pour-le-concours-du-crous.mp317-Oct-2017 15:12 49M 
[SND]20171018063451-lintelligence-dalain-damasio.mp318-Oct-2017 18:31 52M 
[SND]20171019031359-le-directeur-du-tnb-a-la-rencontre-des-etudiants.mp319-Oct-2017 15:11 8.2M 
[SND]20171025062927-engagez-vous-pour-le-lien-social-avec-lafev.mp325-Oct-2017 18:26 35M 
[SND]20171025064355-le-grand-requin-blanc-toujours-roi-des-oceans.mp325-Oct-2017 18:40 54M 
[SND]20171026035129-lespace-du-quartier-saint-martin-repense-grace-au-workshop-etudiant-lilo.mp326-Oct-2017 15:48 47M 
[SND]20171027042810-le-festival-du-tnb-cest-pour-bientot.mp327-Oct-2017 16:25 115M 
[SND]20171027122649-illettrisme-les-savoirs-solidaires-sollicitent-votre-engagement.wav27-Oct-2017 12:23 112M 
[SND]20171103044731-thierry-collet-mentaliste-sous-influences.mp303-Nov-2017 16:44 56M 
[SND]20171107074418-la-maison-brule-le-post-rock-senflamme.mp307-Nov-2017 19:41 97M 
[SND]20171108085351-wahab-marouf-jeune-afghan-de-19-ans-a-cree-le-rennes-cricket-club.mp308-Nov-2017 20:50 51M 
[SND]20171109090908-wahab-marouf-jeune-afghan-de-19-ans-a-cree-le-rennes-cricket-club.mp309-Nov-2017 09:06 51M 
[SND]20171113124513-lantipode-accompagne-la-chanteuse-liev.wav13-Nov-2017 12:42 244M 
[SND]20171114115754-un-recit-de-la-vie-a-gaza.mp314-Nov-2017 11:54 40M 
[SND]20171115054107-7-eme-edition-du-cac-passez-une-nuit-electrique-pour-la-bonne-cause.mp315-Nov-2017 17:38 64M 
[SND]20171115064144-un-mois-de-novembre-engage-pour-luniversite-rennes-2.mp315-Nov-2017 18:38 55M 
[SND]20171119111759-sorganiser-collectivement-cest-la-base-julien-salingue.mp319-Nov-2017 11:14 59M 
[SND]20171119114419-en-novembre-cest-le-festival-des-solidarites.mp319-Nov-2017 11:41 52M 
[SND]20171119120805-le-bel-organe-de-marc-scoffoni.mp319-Nov-2017 12:05 37M 
[SND]20171121023852-le-futsal-feminin-mis-a-lhonneur-a-rennes-par-la-famille-urvoy.mp321-Nov-2017 14:35 16M 
[SND]20171121062819-le-rassemblement-rennais-metoo-dans-la-vraie-vie.wav21-Nov-2017 18:25 109M 
[SND]20171121072144-rencontre-avec-eudes-co-illustrateur-du-guide-supporters-du-stade-rennais-le-manuel-officieux.wav21-Nov-2017 19:18 122M 
[SND]20171121074638-rencontre-avec-eudes-co-illustrateur-du-guide-supporters-du-stade-rennais-le-manuel-officieux.wav21-Nov-2017 19:43 122M 
[SND]20171122040037-debat-thematique-les-violences-discriminations-a-legard-des-femmes.wav22-Nov-2017 15:58 656M 
[SND]20171122111813-le-futsal-feminin-mis-a-lhonneur-a-rennes-par-la-famille-urvoy.mp322-Nov-2017 11:15 16M 
[SND]20171123032410-les-toiles-a-louest-deambulation-poetique-et-musicale-au-coeur-du-musee-des-beaux-arts-de-rennes.mp323-Nov-2017 15:21 132M 
[SND]20171123104700-la-romanciere-lola-lafon-a-la-bu.wav23-Nov-2017 10:43 82M 
[SND]20171128025300-a-la-rencontre-de-ces-jeunes-qui-voyagent-pour-etudier.mp328-Nov-2017 14:49 42M 
[SND]20171129095124-rencontre-avec-lord-esperanza.wav29-Nov-2017 21:48 246M 
[SND]20171129114407-les-toiles-a-louest-deambulation-poetique-et-musicale-au-coeur-du-musee-des-beaux-arts-de-rennes.mp329-Nov-2017 11:41 18M 
[SND]20171129114511-les-toiles-a-louest-deambulation-poetique-et-musicale-au-coeur-du-musee-des-beaux-arts-de-rennes.mp329-Nov-2017 11:42 18M 
[SND]20171129114655-les-toiles-a-louest-deambulation-poetique-et-musicale-au-coeur-du-musee-des-beaux-arts-de-rennes.mp329-Nov-2017 11:43 18M 
[SND]20171129114748-les-toiles-a-louest-deambulation-poetique-et-musicale-au-coeur-du-musee-des-beaux-arts-de-rennes.wav29-Nov-2017 11:44 120M 
[SND]20171129115146-les-toiles-a-louest-deambulation-poetique-et-musicale-au-coeur-du-musee-des-beaux-arts-de-rennes.mp329-Nov-2017 11:48 18M 
[SND]20171130021657-rencontre-avec-lord-esperanza.wav30-Nov-2017 14:14 246M 
[SND]20171204022840-lair-libre-accueille-emmanuel-meirieu.wav04-Dec-2017 14:25 95M 
[SND]20171204032438-le-documentaire-open-the-border-decrypte-par-tony-rublon-president-de-lassociation-amities-kurdes-de-bretagne.mp304-Dec-2017 15:21 40M 
[SND]20171204064109-blossom-habille-ereve.mp304-Dec-2017 18:38 20M 
[SND]20171204071429-une-idee-pour-le-campus-pensez-au-budget-participatif.mp304-Dec-2017 19:11 16M 
[SND]20171204094504-rencontre-avec-angele.wav04-Dec-2017 21:42 277M 
[SND]20171205030937-rencontre-avec-angele.wav05-Dec-2017 15:06 277M 
[SND]20171206112042-les-trans-interrogent-la-diversite.mp306-Dec-2017 11:17 33M 
[SND]20171206112511-les-trans-interrogent-la-diversite.mp306-Dec-2017 11:22 33M 
[SND]20171207093850-transmusicales-jour-1.mp307-Dec-2017 21:35 271M 
[SND]20171208073432-transmusicales-jour-2.mp308-Dec-2017 19:31 147M 
[SND]20171209082057-transmusicales-jour-3.mp309-Dec-2017 20:18 276M 
[SND]20171212075106-natah-le-big-band-de-louest.mp312-Dec-2017 19:47 53M 
[SND]20171213035252-lapprentissage-democratique-avec-graine-de-sens.wav13-Dec-2017 15:49 187M 
[SND]20171213045848-le-flamenco-a-lhonneur-a-rennes-2.wav13-Dec-2017 16:55 72M 
[SND]20171218065454-lilo-moteur-de-recherche-a-taille-humaine.mp318-Dec-2017 18:51 32M 
[SND]20180108080308-lhopital-va-mal.mp308-Jan-2018 19:59 29M 
[SND]20180109023634-les-trans-passent-laudition.wav09-Jan-2018 14:33 59M 
[SND]20180109070908-ludaf-a-la-radio.wav09-Jan-2018 19:05 112M 
[SND]20180109071215-ludaf-a-la-radio.mp309-Jan-2018 19:09 99M 
[SND]20180109124444-les-transmusicales-entre-les-murs.wav09-Jan-2018 12:41 81M 
[SND]20180111053636-voyage-entre-documentaire-et-photographie-contemporaine.mp311-Jan-2018 17:33 24M 
[SND]20180111071809-les-lanceurs-dalerte-au-secours-des-droits-humains.mp311-Jan-2018 19:14 26M 
[SND]20180111121914-les-enfants-squattent-les-trans.wav11-Jan-2018 12:16 69M 
[SND]20180111122442-les-enfants-squattent-les-trans.wav11-Jan-2018 12:21 88M 
[SND]20180117121211-motion-le-nouveau-spectacle-de-brahim-bouchelaghem.wav17-Jan-2018 12:08 90M 
[SND]20180118040520-la-sireine-existe.mp318-Jan-2018 16:02 43M 
[SND]20180123023724-les-rendez-vous-de-la-question-animale.mp323-Jan-2018 14:34 30M 
[SND]20180123030859-il-met-en-musique-le-tnb.mp323-Jan-2018 15:05 41M 
[SND]20180124111323-les-images-de-justice-sur-grand-ecran.mp324-Jan-2018 11:10 20M 
[SND]20180125042341-les-zef-et-mer-au-tambour.mp325-Jan-2018 16:20 16M 
[SND]20180130021458-retour-sur-ledition-2018-de-lopen-de-rennes.mp330-Jan-2018 14:11 8.2M 
[SND]20180130054511-retour-sur-ledition-2018-de-lopen-de-rennes.mp330-Jan-2018 17:41 8.2M 
[SND]20180131045931-photographie-et-sport-sentremele-avec-erwan-tamborini.mp331-Jan-2018 16:56 5.6M 
[SND]20180131052326-photographie-et-sport-sentremele-avec-erwan-tamborini.mp331-Jan-2018 17:20 5.8M 
[SND]20180131052536-photographie-et-sport-sentremele-avec-erwan-tamborini.mp331-Jan-2018 17:22 5.8M 
[SND]20180131052934-photographie-et-sport-sentremele-avec-erwan-tamborini.mp331-Jan-2018 17:26 5.8M 
[SND]20180205041923-les-libertes-numeriques-en-question.mp305-Feb-2018 16:16 45M 
[SND]20180205050516-le-spectacle-de-la-transgression-au-coeur-de-loeuvre-avec-gisele-vienne.mp305-Feb-2018 17:01 77M 
[SND]20180205050611-le-spectacle-de-la-transgression-au-coeur-de-loeuvre-avec-gisele-vienne.mp305-Feb-2018 17:02 77M 
[SND]20180205060613-le-spectacle-de-la-transgression-au-coeur-de-loeuvre-avec-gisele-vienne.mp305-Feb-2018 18:02 82M 
[SND]20180206044105-rencontrez-les-engages-au-crij.mp306-Feb-2018 16:37 32M 
[SND]20180212090208-pierre-maillet-presente-letzlove-sur-les-campus.mp312-Feb-2018 20:58 28M 
[SND]20180213071922-le-mixage-intuitif-avec-clair-obscur.mp313-Feb-2018 19:15 29M 
[SND]20180214071010-leslip-et-son-cabinet-de-curiosites.mp314-Feb-2018 19:06 24M 
[SND]20180214080330-pierre-roullier-vous-emmene-a-la-baguette.mp314-Feb-2018 20:00 46M 
[SND]20180214081300-pierre-roullier-vous-emmene-a-la-baguette.mp314-Feb-2018 20:09 45M 
[SND]20180215085639-julien-bobroff-grand-vulgarisateur.mp315-Feb-2018 20:53 58M 
[SND]20180220032151-sciences-po-rennes-terre-daccueil-de-wintegreat.mp320-Feb-2018 15:18 37M 
[SND]20180225122115-a-voir-a-connaitre.mp325-Feb-2018 12:17 53M 
[SND]20180226054615-immersion-dans-la-nuit.mp326-Feb-2018 17:42 60M 
[SND]20180227120327-a-voir-a-connaitre.mp327-Feb-2018 00:00 53M 
[SND]20180228013402-archpl-quand-la-jeunesse-ambitieuse-melange-textiles-et-rap-rennais.mp328-Feb-2018 01:30 42M 
[SND]20180228070954-tordre-spectacle-de-danse-de-rachid-ouramdane.wav28-Feb-2018 19:06 163M 
[SND]20180301050145-conference-langage-inclusif-un-peril-mortel-par-laelia-veron.wav01-Mar-2018 16:58 136M 
[SND]20180312115559-parcourir-william-forsythe.wav12-Mar-2018 23:52 109M 
[SND]20180313024131-rencontre-avec-meloman-mani.mp313-Mar-2018 14:38 45M 
[SND]20180314025502-quand-les-igeriens-foulent-les-planches.mp314-Mar-2018 14:51 57M 
[SND]20180314025720-a-la-recherche-de-lane-une-enquete-radiophonique.wav14-Mar-2018 14:53 130M 
[SND]20180314030316-a-la-recherche-de-lane-une-enquete-radiophonique.wav14-Mar-2018 14:59 130M 
[SND]20180314034018-les-frites.wav14-Mar-2018 15:36 6.5M 
[SND]20180315024911-curiosite-livresque.mp315-Mar-2018 14:45 28M 
[SND]20180319100231-michelle-doit-on-ten-vouloir-davoir-fait-un-selfie-a-auschwitz-interview-dantonin-lebrun.wav19-Mar-2018 09:59 300M 
[SND]20180321050348-la-ruche-etudiante-attend-ses-abeilles.mp321-Mar-2018 17:00 27M 
[SND]20180321061053-fete-et-prevention-au-coeur-de-prevme-too.mp321-Mar-2018 18:07 15M 
[SND]20180322040643-retour-sur-projet-trajectoires-habiter-lephemere.mp322-Mar-2018 16:03 63M 
[SND]20180328030029-jouez-le-jeu-avec-le-ludobus.mp328-Mar-2018 14:56 24M 
[SND]20180328052751-scenart-en-court-revelateur-du-cinema-etudiant.mp328-Mar-2018 17:24 37M 
[SND]20180329094037-ay-roop-fait-son-temps-fort.mp329-Mar-2018 09:37 34M 
[SND]20180403025309-l-ecam-celebre-le-printemps-a-ker-lann.mp303-Apr-2018 14:49 11M 
[SND]20180403061659-seul-lamour-peut-resister-a-labime.mp303-Apr-2018 18:13 88M 
[SND]20180404063530-a-mi-chemin-entre-aneckxander-et-alexander.mp304-Apr-2018 18:31 31M 
[SND]20180404073917-haiti-en-images-a-villejean.mp304-Apr-2018 19:35 42M 
[SND]20180405040738-leeve-un-voyage-au-pas-de-votre-porte.mp305-Apr-2018 16:04 25M 
[SND]20180406025801-jaimerais-que-ce-qui-mechappe-ne-vous-echappe-pas.mp306-Apr-2018 14:54 34M 
[SND]20180409041354-cest-parti-les-embellies.mp309-Apr-2018 16:10 61M 
[SND]20180410042246-les-mardi-de-legalite-atelier-decriture.mp310-Apr-2018 16:19 83M 
[SND]20180411010006-lheroic-fantasy-sinvite-a-rennes.mp311-Apr-2018 12:56 28M 
[SND]20180411043112-les-eleves-de-musiques-actuelles-amplifiees-sinvitent-a-lantipode.mp311-Apr-2018 16:27 28M 
[SND]20180411051925-le-patrimoine-photographique-breton-fondement-du-projet-du-master-magemi.mp311-Apr-2018 17:15 31M 
[SND]20180413025604-expo-sonore-les-jeunes-ont-les-rennes.mp313-Apr-2018 14:52 912K 
[SND]20180413034713-solar-decathlon-la-team-bretagne-se-prepare.mp313-Apr-2018 15:43 24M 
[SND]20180417033418-projet-theatre-avec-arnaud-stephan-et-julie-moreau.wav17-Apr-2018 15:30 171M 
[SND]20180417034429-projet-theatre-avec-arnaud-stephan-et-julie-moreau.wav17-Apr-2018 15:41 171M 
[SND]20180417054300-on-dechire-la-toile.mp317-Apr-2018 17:39 28M 
[SND]20180419034711-des-rencontres-rythmees-par-la-danse-au-diapason.mp319-Apr-2018 15:43 22M 
[SND]20180419055628-le-festival-mythos-revient-pour-une-22eme-edition.mp319-Apr-2018 17:53 194M 
[SND]20180420055600-contre-la-loi-vidal-les-etudiants-se-mobilisent.mp320-Apr-2018 17:52 19M 
[SND]20180427045717-arlette-une-rencontre-photographique-au-ateliers-du-vent.mp327-Apr-2018 16:53 42M 
[SND]20180427050120-naaman-le-roi-du-reggae-french-touch.mp327-Apr-2018 16:57 14M 
[SND]20180503055826-rap-et-feminisme-temoignage-de-liberte.mp303-May-2018 17:54 37M 
[SND]20180504053452-73-danseurs-investissent-lesplanade-charles-de-gaulle.mp304-May-2018 17:31 22M 
[SND]20180515022744-art-rock-tout-en-audace.mp315-May-2018 14:24 29M 
[SND]20180516053623-la-fete-de-la-bretagne-envahis-rennes.mp316-May-2018 17:32 23M 
[SND]20180517035106-gouelbreizh2018-dialogue-photographique-breton-avec-les-etudiant-e-s-magemi.mp317-May-2018 15:47 8.9M 
[SND]20180517043511-cirque-ou-presque.wav17-May-2018 16:31 49M 
[SND]20180517051716-gouelbreizh2018-le-natah-big-band-pour-vous-servir.mp317-May-2018 17:13 15M 
[SND]20180517053416-a-la-croisee-des-ecritures.mp317-May-2018 17:30 31M 
[SND]20180518044702-larmada-fait-la-fete-au-triangle.mp318-May-2018 16:43 30M 
[SND]20180523025706-deplaces-danser-sans-frontieres.mp323-May-2018 14:53 20M 
[SND]20180523055017-improvisarium-parcours-de-creation-sonore.mp323-May-2018 17:46 19M 
[SND]20180524070321-lobodis-un-torrefacteur-qui-vise-le-juste.wav24-May-2018 18:59 84M 
[SND]20180525013853-meltingfest.mp325-May-2018 13:35 25M 
[SND]20180525023358-back-home-festival-1.mp325-May-2018 14:30 16M 
[SND]20180528072632-la-solidarite-au-secours-de-la-rupture-sociale.mp328-May-2018 19:22 63M 
[SND]20180529072534-gilles-boeuf-proner-une-conscience-humanitaire-planetaire.mp329-May-2018 19:21 44M 
[SND]20180530013333-mobilite-la-metropole-rennaise-consulte-les-habitants.mp330-May-2018 13:29 28M 
[SND]20180530031731-lamour-comme-une-secte-de-pascal-rambert.mp330-May-2018 15:13 57M 
[SND]20180530044007-le-jardin-moderne-a-20-ans.mp330-May-2018 16:36 54M 
[SND]20180613062444-les-jeunes-cooperent.wav13-Jun-2018 18:20 73M 
[SND]20180615030431-le-triangle-cest-fantastique.mp315-Jun-2018 15:00 31M 
[SND]20180628015218-cellyon-le-jeu-video-dun-nouveau-genre.mp328-Jun-2018 13:48 14M 
[SND]20180704101306-le-tour-alternatiba-a-rennes.mp304-Jul-2018 10:09 43M 
[SND]20180816044427-la-route-du-rock-2018-emission-speciale.mp316-Aug-2018 16:40 145M 
[SND]Publireportage_STAR_09_2017.wav08-Nov-2017 14:43 18M 

Apache/2.2.16 (Debian) Server at podcast.c-lab.fr Port 80